| time (UTC) | temp F | wind direction | speed knots | gust knots | rain 1hr in | rain 24hr in | rain mn in | humidity % | barometer mb |
| 20260506004938 | 49 | 110 | 0.9 | 0.9 | 0.00 | 0.00 | 0.00 | 88 | 1009.9 |
| 20260506004437 | 49 | 135 | 0.0 | 0.0 | 0.00 | 0.00 | 0.00 | 88 | 1009.6 |
| 20260506003932 | 49 | 174 | 0.9 | 1.7 | 0.00 | 0.00 | 0.00 | 88 | 1010.0 |
| 20260506003429 | 49 | 137 | 0.0 | 0.9 | 0.00 | 0.00 | 0.00 | 88 | 1010.0 |
| 20260506002926 | 49 | 318 | 0.0 | 0.9 | 0.00 | 0.00 | 0.00 | 88 | 1009.9 |
| 20260506002422 | 50 | 120 | 0.9 | 0.9 | 0.00 | 0.00 | 0.00 | 87 | 1009.7 |
| 20260506001917 | 50 | 165 | 0.9 | 0.9 | 0.00 | 0.00 | 0.00 | 87 | 1009.9 |
| 20260506001415 | 50 | 161 | 0.9 | 1.7 | 0.00 | 0.00 | 0.00 | 87 | 1010.0 |
| 20260506000912 | 50 | 145 | 0.0 | 0.0 | 0.00 | 0.00 | 0.00 | 86 | 1010.0 |
| 20260506000409 | 50 | 146 | 0.9 | 1.7 | 0.00 | 0.00 | 0.00 | 86 | 1010.0 |
| 20260505235906 | 50 | 108 | 1.7 | 3.5 | 0.00 | 0.00 | 0.00 | 86 | 1009.9 |
| 20260505235404 | 50 | 155 | 1.7 | 2.6 | 0.00 | 0.00 | 0.00 | 85 | 1009.9 |
| 20260505234901 | 50 | 77 | 0.9 | 0.9 | 0.00 | 0.00 | 0.00 | 84 | 1009.9 |
| 20260505234358 | 50 | 132 | 0.9 | 0.9 | 0.00 | 0.00 | 0.00 | 84 | 1009.9 |
| 20260505233855 | 50 | 179 | 1.7 | 2.6 | 0.00 | 0.00 | 0.00 | 83 | 1009.7 |
| 20260505233353 | 51 | 126 | 0.0 | 0.0 | 0.00 | 0.00 | 0.00 | 82 | 1009.6 |
| 20260505232850 | 51 | 123 | 0.9 | 0.9 | 0.00 | 0.00 | 0.00 | 80 | 1009.7 |
| 20260505232348 | 51 | 151 | 0.9 | 1.7 | 0.00 | 0.00 | 0.00 | 80 | 1009.6 |
| 20260505231844 | 51 | 161 | 1.7 | 2.6 | 0.00 | 0.00 | 0.00 | 79 | 1009.7 |
| 20260505231341 | 51 | 177 | 0.9 | 0.9 | 0.00 | 0.00 | 0.00 | 79 | 1009.6 |
| 20260505230840 | 51 | 145 | 1.7 | 2.6 | 0.00 | 0.00 | 0.00 | 79 | 1009.3 |
| 20260505230337 | 52 | 139 | 1.7 | 1.7 | 0.00 | 0.00 | 0.00 | 78 | 1009.3 |
| 20260505225833 | 52 | 11 | 1.7 | 2.6 | 0.00 | 0.00 | 0.00 | 78 | 1009.1 |
| 20260505225331 | 52 | 174 | 0.9 | 0.9 | 0.00 | 0.00 | 0.00 | 78 | 1009.5 |
| 20260505224825 | 52 | 213 | 2.6 | 3.5 | 0.00 | 0.00 | 0.00 | 77 | 1009.4 |
| 20260505224324 | 52 | 143 | 0.9 | 0.9 | 0.00 | 0.00 | 0.00 | 77 | 1009.4 |
| 20260505223820 | 52 | 117 | 0.9 | 0.9 | 0.00 | 0.00 | 0.00 | 77 | 1009.1 |
| 20260505223317 | 53 | 206 | 2.6 | 3.5 | 0.00 | 0.00 | 0.00 | 76 | 1009.2 |
| 20260505222813 | 53 | 99 | 0.9 | 0.9 | 0.00 | 0.00 | 0.00 | 76 | 1008.9 |
| 20260505222309 | 52 | 56 | 0.9 | 0.9 | 0.00 | 0.00 | 0.00 | 76 | 1009.1 |
| 20260505221807 | 53 | 110 | 1.7 | 1.7 | 0.00 | 0.00 | 0.00 | 76 | 1009.1 |
| 20260505221303 | 53 | 32 | 1.7 | 2.6 | 0.00 | 0.00 | 0.00 | 76 | 1008.6 |
| 20260505220800 | 53 | 108 | 1.7 | 2.6 | 0.00 | 0.00 | 0.00 | 75 | 1008.8 |
| 20260505220257 | 53 | 221 | 0.9 | 1.7 | 0.00 | 0.00 | 0.00 | 74 | 1008.5 |
| 20260505215755 | 53 | 163 | 0.0 | 0.0 | 0.00 | 0.00 | 0.00 | 74 | 1008.9 |
| 20260505215253 | 53 | 132 | 0.9 | 1.7 | 0.00 | 0.00 | 0.00 | 74 | 1008.5 |
| 20260505214750 | 53 | 267 | 1.7 | 2.6 | 0.00 | 0.00 | 0.00 | 73 | 1008.6 |
| 20260505214248 | 53 | 99 | 0.9 | 0.9 | 0.00 | 0.00 | 0.00 | 72 | 1008.7 |
| 20260505213745 | 53 | 268 | 2.6 | 3.5 | 0.00 | 0.00 | 0.00 | 72 | 1008.2 |
| 20260505213242 | 53 | 202 | 0.9 | 0.9 | 0.00 | 0.00 | 0.00 | 72 | 1008.3 |
| 20260505212738 | 54 | 254 | 2.6 | 3.5 | 0.00 | 0.00 | 0.00 | 72 | 1008.9 |
| 20260505212236 | 54 | 304 | 3.5 | 3.5 | 0.00 | 0.00 | 0.00 | 72 | 1008.8 |
| 20260505211732 | 54 | 117 | 0.9 | 1.7 | 0.00 | 0.00 | 0.00 | 72 | 1008.6 |
| 20260505211230 | 54 | 190 | 1.7 | 1.7 | 0.00 | 0.00 | 0.00 | 72 | 1008.5 |
| 20260505210726 | 54 | 135 | 1.7 | 1.7 | 0.00 | 0.00 | 0.00 | 73 | 1008.4 |
| 20260505210223 | 54 | 52 | 1.7 | 2.6 | 0.00 | 0.00 | 0.00 | 72 | 1008.2 |
| 20260505205720 | 55 | 299 | 1.7 | 2.6 | 0.00 | 0.00 | 0.00 | 73 | 1008.2 |
| 20260505205219 | 54 | 173 | 0.9 | 1.7 | 0.00 | 0.00 | 0.00 | 73 | 1008.0 |
| 20260505204715 | 55 | 338 | 1.7 | 2.6 | 0.00 | 0.00 | 0.00 | 73 | 1008.3 |
| 20260505204213 | 55 | 38 | 6.1 | 8.7 | 0.00 | 0.00 | 0.00 | 73 | 1008.3 |
| 20260505203710 | 55 | 249 | 2.6 | 2.6 | 0.00 | 0.00 | 0.00 | 72 | 1008.0 |
| 20260505203207 | 55 | 111 | 1.7 | 2.6 | 0.00 | 0.00 | 0.00 | 73 | 1007.8 |
| 20260505202702 | 54 | 148 | 0.9 | 0.9 | 0.00 | 0.00 | 0.00 | 74 | 1008.0 |
| 20260505202158 | 54 | 39 | 1.7 | 2.6 | 0.00 | 0.00 | 0.00 | 74 | 1008.1 |
| 20260505201655 | 54 | 148 | 0.9 | 1.7 | 0.00 | 0.00 | 0.00 | 74 | 1008.2 |
| 20260505201153 | 54 | 190 | 1.7 | 1.7 | 0.00 | 0.00 | 0.00 | 74 | 1008.2 |
| 20260505200651 | 54 | 150 | 1.7 | 1.7 | 0.00 | 0.00 | 0.00 | 74 | 1008.1 |
| 20260505200147 | 54 | 131 | 2.6 | 5.2 | 0.00 | 0.00 | 0.00 | 74 | 1008.0 |
| 20260505195643 | 54 | 251 | 2.6 | 3.5 | 0.00 | 0.00 | 0.00 | 73 | 1008.1 |
| 20260505195141 | 54 | 209 | 2.6 | 3.5 | 0.00 | 0.00 | 0.00 | 74 | 1008.3 |
| 20260505194638 | 54 | 143 | 3.5 | 5.2 | 0.00 | 0.00 | 0.00 | 73 | 1008.4 |
| 20260505194134 | 54 | 169 | 1.7 | 2.6 | 0.00 | 0.00 | 0.00 | 74 | 1008.3 |
| 20260505193631 | 54 | 151 | 2.6 | 2.6 | 0.00 | 0.00 | 0.00 | 74 | 1008.2 |
| 20260505193128 | 54 | 108 | 0.9 | 1.7 | 0.00 | 0.00 | 0.00 | 74 | 1008.3 |
| 20260505192626 | 54 | 187 | 0.9 | 1.7 | 0.00 | 0.00 | 0.00 | 75 | 1008.0 |
| 20260505192123 | 54 | 85 | 3.5 | 5.2 | 0.00 | 0.00 | 0.00 | 75 | 1008.1 |
| 20260505191621 | 54 | 182 | 0.9 | 1.7 | 0.00 | 0.00 | 0.00 | 75 | 1007.9 |
| 20260505191119 | 54 | 283 | 1.7 | 2.6 | 0.00 | 0.00 | 0.00 | 75 | 1007.7 |
| 20260505190614 | 55 | 57 | 1.7 | 2.6 | 0.00 | 0.00 | 0.00 | 74 | 1007.9 |
| 20260505190109 | 55 | 154 | 1.7 | 1.7 | 0.00 | 0.00 | 0.00 | 75 | 1008.0 |
| 20260505185601 | 55 | 171 | 1.7 | 2.6 | 0.00 | 0.00 | 0.00 | 74 | 1007.9 |
| 20260505185057 | 55 | 105 | 1.7 | 3.5 | 0.00 | 0.00 | 0.00 | 74 | 1007.7 |
| 20260505184554 | 55 | 178 | 0.9 | 0.9 | 0.00 | 0.00 | 0.00 | 74 | 1007.5 |
| 20260505184051 | 55 | 130 | 0.0 | 0.9 | 0.00 | 0.00 | 0.00 | 74 | 1007.6 |
| 20260505183548 | 55 | 252 | 1.7 | 2.6 | 0.00 | 0.00 | 0.00 | 74 | 1007.4 |
| 20260505183045 | 55 | 60 | 0.9 | 1.7 | 0.00 | 0.00 | 0.00 | 76 | 1007.3 |
| 20260505182541 | 55 | 162 | 0.9 | 0.9 | 0.00 | 0.00 | 0.00 | 77 | 1007.3 |
| 20260505182038 | 55 | 142 | 3.5 | 3.5 | 0.00 | 0.00 | 0.00 | 77 | 1007.2 |
| 20260505181535 | 55 | 67 | 0.9 | 1.7 | 0.00 | 0.00 | 0.00 | 78 | 1007.2 |
| 20260505181032 | 55 | 122 | 2.6 | 5.2 | 0.00 | 0.00 | 0.00 | 79 | 1007.1 |
| 20260505180527 | 55 | 104 | 1.7 | 1.7 | 0.00 | 0.00 | 0.00 | 79 | 1007.2 |
| 20260505180026 | 55 | 239 | 1.7 | 2.6 | 0.00 | 0.00 | 0.00 | 80 | 1007.2 |
| 20260505175525 | 55 | 55 | 1.7 | 1.7 | 0.00 | 0.00 | 0.00 | 81 | 1007.1 |
| 20260505175023 | 55 | 87 | 2.6 | 3.5 | 0.00 | 0.00 | 0.00 | 81 | 1006.9 |
| 20260505174520 | 55 | 72 | 0.0 | 0.9 | 0.00 | 0.00 | 0.00 | 81 | 1007.2 |
| 20260505174016 | 55 | 113 | 0.0 | 0.9 | 0.00 | 0.00 | 0.00 | 81 | 1006.9 |
| 20260505173513 | 55 | 203 | 1.7 | 2.6 | 0.00 | 0.00 | 0.00 | 82 | 1007.0 |
| 20260505173010 | 55 | 162 | 2.6 | 2.6 | 0.00 | 0.00 | 0.00 | 81 | 1006.9 |
| 20260505172508 | 55 | 118 | 0.9 | 0.9 | 0.00 | 0.00 | 0.00 | 81 | 1006.7 |
| 20260505172003 | 55 | 160 | 1.7 | 1.7 | 0.00 | 0.00 | 0.00 | 82 | 1006.9 |
| 20260505171459 | 55 | 142 | 1.7 | 3.5 | 0.00 | 0.00 | 0.00 | 82 | 1006.9 |
| 20260505170956 | 55 | 148 | 2.6 | 2.6 | 0.00 | 0.00 | 0.00 | 81 | 1006.7 |
| 20260505170453 | 55 | 105 | 0.9 | 0.9 | 0.00 | 0.00 | 0.00 | 81 | 1006.5 |
| 20260505165948 | 55 | 177 | 1.7 | 2.6 | 0.00 | 0.00 | 0.00 | 81 | 1006.4 |
| 20260505165444 | 56 | 216 | 1.7 | 1.7 | 0.00 | 0.00 | 0.00 | 81 | 1006.1 |
| 20260505164940 | 56 | 188 | 1.7 | 2.6 | 0.00 | 0.00 | 0.00 | 81 | 1005.9 |
| 20260505164437 | 56 | 213 | 1.7 | 2.6 | 0.00 | 0.00 | 0.00 | 81 | 1005.9 |
| 20260505163934 | 55 | 130 | 0.0 | 0.9 | 0.00 | 0.00 | 0.00 | 82 | 1005.8 |
| 20260505163433 | 55 | 151 | 1.7 | 3.5 | 0.00 | 0.00 | 0.00 | 81 | 1005.8 |
| 20260505162932 | 55 | 107 | 1.7 | 5.2 | 0.00 | 0.00 | 0.00 | 82 | 1005.7 |
| 20260505162427 | 55 | 71 | 4.3 | 5.2 | 0.00 | 0.00 | 0.00 | 82 | 1005.6 |
| 20260505161924 | 56 | 115 | 0.0 | 0.9 | 0.00 | 0.00 | 0.00 | 82 | 1005.5 |
| 20260505161421 | 56 | 249 | 0.9 | 1.7 | 0.00 | 0.00 | 0.00 | 83 | 1005.3 |
| 20260505160919 | 55 | 14 | 1.7 | 1.7 | 0.00 | 0.00 | 0.00 | 83 | 1005.0 |
| 20260505160416 | 55 | 181 | 0.9 | 1.7 | 0.00 | 0.00 | 0.00 | 83 | 1005.2 |
| 20260505153355 | 56 | 141 | 0.0 | 0.9 | 0.00 | 0.00 | 0.00 | 84 | 1004.4 |
| 20260505152852 | 56 | 275 | 0.9 | 1.7 | 0.00 | 0.00 | 0.00 | 84 | 1004.4 |
| 20260505152349 | 56 | 161 | 0.9 | 0.9 | 0.00 | 0.00 | 0.00 | 85 | 1004.4 |
| 20260505151843 | 56 | 213 | 2.6 | 3.5 | 0.00 | 0.00 | 0.00 | 85 | 1004.4 |
| 20260505151340 | 56 | 126 | 1.7 | 1.7 | 0.00 | 0.00 | 0.00 | 85 | 1004.4 |
| 20260505150837 | 57 | 193 | 1.7 | 3.5 | 0.00 | 0.00 | 0.00 | 85 | 1004.2 |
| 20260505150334 | 57 | 61 | 1.7 | 2.6 | 0.00 | 0.00 | 0.00 | 85 | 1004.0 |
| 20260505140259 | 64 | 76 | 1.7 | 5.2 | 0.00 | 0.00 | 0.00 | 86 | 1002.3 |
| 20260505130223 | 66 | 82 | 0.9 | 0.9 | 0.00 | 0.00 | 0.00 | 85 | 1001.2 |
| 20260505124713 | 66 | 63 | 0.0 | 0.9 | 0.00 | 0.00 | 0.00 | 86 | 1001.2 |
| 20260505124209 | 66 | 142 | 0.9 | 1.7 | 0.00 | 0.00 | 0.00 | 86 | 1001.6 |
| 20260505123705 | 66 | 111 | 0.0 | 0.0 | 0.00 | 0.00 | 0.00 | 86 | 1001.2 |
| 20260505123203 | 66 | 124 | 0.9 | 0.9 | 0.00 | 0.00 | 0.00 | 87 | 1001.2 |
| 20260505122659 | 65 | 178 | 0.0 | 0.9 | 0.00 | 0.00 | 0.00 | 87 | 1000.8 |
| 20260505122156 | 65 | 145 | 0.9 | 0.9 | 0.00 | 0.00 | 0.00 | 87 | 1000.5 |
| 20260505121652 | 65 | 137 | 0.0 | 0.0 | 0.00 | 0.00 | 0.00 | 87 | 1000.6 |
| 20260505121149 | 65 | 180 | 2.6 | 3.5 | 0.00 | 0.00 | 0.00 | 87 | 1000.6 |
| 20260505120645 | 65 | 99 | 0.9 | 1.7 | 0.00 | 0.00 | 0.00 | 87 | 1000.6 |
| 20260505120142 | 65 | 172 | 1.7 | 2.6 | 0.00 | 0.00 | 0.00 | 87 | 1000.6 |
| 20260505115635 | 65 | 33 | 2.6 | 3.5 | 0.00 | 0.00 | 0.00 | 87 | 1000.6 |
| 20260505115133 | 65 | 112 | 0.9 | 1.7 | 0.00 | 0.00 | 0.00 | 88 | 1000.7 |
| 20260505114624 | 65 | 145 | 0.9 | 1.7 | 0.00 | 0.00 | 0.00 | 88 | 1000.5 |
| 20260505114121 | 64 | 105 | 0.9 | 0.9 | 0.00 | 0.00 | 0.00 | 88 | 1000.6 |
| 20260505113617 | 64 | 111 | 0.0 | 0.9 | 0.00 | 0.00 | 0.00 | 88 | 1000.6 |
| 20260505113114 | 64 | 352 | 0.9 | 0.9 | 0.00 | 0.00 | 0.00 | 88 | 1000.5 |
| 20260505112610 | 64 | 83 | 0.9 | 1.7 | 0.00 | 0.00 | 0.00 | 88 | 1000.3 |
| 20260505112108 | 64 | 113 | 0.0 | 0.9 | 0.00 | 0.00 | 0.00 | 88 | 1000.3 |
| 20260505111602 | 64 | 107 | 0.0 | 0.0 | 0.00 | 0.00 | 0.00 | 88 | 1000.2 |
| 20260505111058 | 65 | 109 | 0.0 | 0.0 | 0.00 | 0.00 | 0.00 | 88 | 1000.0 |
| 20260505110555 | 65 | 133 | 0.0 | 0.0 | 0.00 | 0.00 | 0.00 | 88 | 1000.2 |
| 20260505102027 | 66 | 114 | 0.0 | 0.0 | 0.00 | 0.00 | 0.00 | 89 | 999.8 |
| 20260505101526 | 66 | 141 | 0.0 | 0.9 | 0.00 | 0.00 | 0.00 | 89 | 999.8 |
| 20260505101022 | 66 | 144 | 0.0 | 0.0 | 0.00 | 0.00 | 0.00 | 89 | 999.7 |
| 20260505100519 | 66 | 113 | 0.0 | 0.0 | 0.00 | 0.00 | 0.00 | 89 | 999.5 |
| 20260505100016 | 66 | 123 | 0.0 | 0.0 | 0.00 | 0.00 | 0.00 | 89 | 999.3 |
| 20260505095512 | 66 | 112 | 0.0 | 0.0 | 0.00 | 0.00 | 0.00 | 89 | 999.2 |
| 20260505095008 | 66 | 117 | 0.0 | 0.0 | 0.00 | 0.00 | 0.00 | 89 | 998.9 |
| 20260505094505 | 66 | 104 | 0.0 | 0.0 | 0.00 | 0.00 | 0.00 | 88 | 998.9 |
| 20260505094001 | 66 | 118 | 0.0 | 0.0 | 0.00 | 0.00 | 0.00 | 88 | 998.8 |
| 20260505093458 | 66 | 92 | 0.0 | 0.0 | 0.00 | 0.00 | 0.00 | 88 | 998.8 |
| 20260505092955 | 67 | 94 | 0.0 | 0.0 | 0.00 | 0.00 | 0.00 | 87 | 998.5 |
| 20260505092452 | 67 | 141 | 0.0 | 0.9 | 0.00 | 0.00 | 0.00 | 87 | 998.5 |
| 20260505091950 | 67 | 127 | 0.0 | 0.0 | 0.00 | 0.00 | 0.00 | 87 | 998.6 |
| 20260505091447 | 67 | 131 | 0.0 | 0.0 | 0.00 | 0.00 | 0.00 | 87 | 998.5 |
| 20260505090945 | 67 | 56 | 1.7 | 2.6 | 0.00 | 0.00 | 0.00 | 86 | 998.6 |
| 20260505090443 | 67 | 128 | 0.0 | 0.9 | 0.00 | 0.00 | 0.00 | 86 | 998.6 |
| 20260505085940 | 68 | 174 | 0.0 | 0.0 | 0.00 | 0.00 | 0.00 | 86 | 998.7 |
| 20260505085438 | 68 | 140 | 0.0 | 0.9 | 0.00 | 0.00 | 0.00 | 86 | 998.6 |
| 20260505084936 | 68 | 103 | 0.0 | 0.9 | 0.00 | 0.00 | 0.00 | 86 | 998.8 |
| 20260505084434 | 68 | 127 | 0.0 | 0.0 | 0.00 | 0.00 | 0.00 | 86 | 998.9 |
| 20260505083932 | 68 | 85 | 0.0 | 0.9 | 0.00 | 0.00 | 0.00 | 86 | 998.8 |
| 20260505083429 | 68 | 118 | 0.0 | 0.0 | 0.00 | 0.00 | 0.00 | 86 | 998.7 |
| 20260505082925 | 68 | 101 | 0.9 | 0.9 | 0.00 | 0.00 | 0.00 | 86 | 999.0 |
| 20260505082421 | 68 | 119 | 0.9 | 0.9 | 0.00 | 0.00 | 0.00 | 86 | 998.9 |
| 20260505081918 | 68 | 87 | 0.0 | 0.0 | 0.00 | 0.00 | 0.00 | 85 | 998.9 |
| 20260505081415 | 68 | 104 | 0.0 | 0.0 | 0.00 | 0.00 | 0.00 | 85 | 998.8 |
| 20260505080911 | 68 | 111 | 0.0 | 0.0 | 0.00 | 0.00 | 0.00 | 85 | 999.2 |
| 20260505080408 | 68 | 134 | 0.0 | 0.9 | 0.00 | 0.00 | 0.00 | 85 | 999.2 |
| 20260505075903 | 69 | 111 | 0.0 | 0.0 | 0.00 | 0.00 | 0.00 | 84 | 999.3 |
| 20260505075400 | 69 | 108 | 0.0 | 0.0 | 0.00 | 0.00 | 0.00 | 84 | 999.3 |
| 20260505074857 | 69 | 117 | 0.0 | 0.0 | 0.00 | 0.00 | 0.00 | 84 | 999.2 |
| 20260505074354 | 69 | 121 | 0.0 | 0.0 | 0.00 | 0.00 | 0.00 | 84 | 999.3 |
| 20260505073852 | 69 | 89 | 0.0 | 0.9 | 0.00 | 0.00 | 0.00 | 84 | 999.2 |
| 20260505073349 | 69 | 113 | 0.0 | 0.0 | 0.00 | 0.00 | 0.00 | 84 | 999.3 |
| 20260505072846 | 69 | 124 | 0.0 | 0.9 | 0.00 | 0.00 | 0.00 | 84 | 999.2 |
| 20260505072342 | 69 | 98 | 0.0 | 0.9 | 0.00 | 0.00 | 0.00 | 83 | 999.5 |
| 20260505071839 | 69 | 122 | 0.9 | 0.9 | 0.00 | 0.00 | 0.00 | 83 | 999.6 |
| 20260505071335 | 69 | 107 | 0.0 | 0.0 | 0.00 | 0.00 | 0.00 | 82 | 999.7 |
| 20260505070833 | 69 | 106 | 0.0 | 0.0 | 0.00 | 0.00 | 0.00 | 82 | 999.7 |
| 20260505070329 | 70 | 106 | 0.0 | 0.0 | 0.00 | 0.00 | 0.00 | 82 | 999.5 |
| 20260505065825 | 70 | 149 | 0.0 | 0.9 | 0.00 | 0.00 | 0.00 | 81 | 999.7 |
| 20260505065322 | 70 | 101 | 0.0 | 0.9 | 0.00 | 0.00 | 0.00 | 81 | 999.6 |
| 20260505064819 | 70 | 99 | 0.0 | 0.0 | 0.00 | 0.00 | 0.00 | 80 | 999.9 |
| 20260505064316 | 70 | 130 | 0.9 | 0.9 | 0.00 | 0.00 | 0.00 | 80 | 999.7 |
| 20260505063814 | 71 | 98 | 0.0 | 0.9 | 0.00 | 0.00 | 0.00 | 80 | 1000.1 |
| 20260505063310 | 71 | 111 | 0.0 | 0.0 | 0.00 | 0.00 | 0.00 | 79 | 999.8 |
| 20260505062806 | 71 | 100 | 0.0 | 0.0 | 0.00 | 0.00 | 0.00 | 79 | 999.9 |
| 20260505062304 | 71 | 254 | 1.7 | 1.7 | 0.00 | 0.00 | 0.00 | 78 | 999.7 |
| 20260505061801 | 71 | 112 | 0.0 | 0.0 | 0.00 | 0.00 | 0.00 | 78 | 999.5 |
| 20260505061259 | 71 | 123 | 1.7 | 2.6 | 0.00 | 0.00 | 0.00 | 77 | 999.4 |
| 20260505060756 | 71 | 66 | 1.7 | 2.6 | 0.00 | 0.00 | 0.00 | 77 | 999.4 |
| 20260505060253 | 72 | 111 | 0.0 | 0.0 | 0.00 | 0.00 | 0.00 | 77 | 999.3 |
| 20260505055748 | 72 | 148 | 2.6 | 2.6 | 0.00 | 0.00 | 0.00 | 77 | 999.6 |
| 20260505055245 | 72 | 94 | 0.9 | 0.9 | 0.00 | 0.00 | 0.00 | 77 | 999.4 |
| 20260505054742 | 72 | 175 | 1.7 | 2.6 | 0.00 | 0.00 | 0.00 | 77 | 999.6 |
| 20260505054239 | 72 | 141 | 0.9 | 1.7 | 0.00 | 0.00 | 0.00 | 76 | 999.6 |
| 20260505053738 | 72 | 142 | 0.9 | 0.9 | 0.00 | 0.00 | 0.00 | 76 | 999.6 |
| 20260505053234 | 72 | 110 | 0.9 | 0.9 | 0.00 | 0.00 | 0.00 | 75 | 999.5 |
| 20260505052731 | 72 | 160 | 1.7 | 2.6 | 0.00 | 0.00 | 0.00 | 75 | 999.4 |
| 20260505052228 | 72 | 100 | 0.0 | 0.9 | 0.00 | 0.00 | 0.00 | 76 | 999.8 |
| 20260505051725 | 72 | 115 | 0.0 | 0.0 | 0.00 | 0.00 | 0.00 | 76 | 999.6 |
| 20260505051223 | 72 | 127 | 0.9 | 0.9 | 0.00 | 0.00 | 0.00 | 76 | 999.6 |
| 20260505050721 | 73 | 104 | 0.9 | 0.9 | 0.00 | 0.00 | 0.00 | 75 | 999.7 |
| 20260505050219 | 73 | 79 | 0.9 | 1.7 | 0.00 | 0.00 | 0.00 | 75 | 999.8 |
| 20260505041648 | 73 | 143 | 0.9 | 0.9 | 0.00 | 0.00 | 0.00 | 74 | 999.9 |
| 20260505041146 | 73 | 122 | 0.9 | 1.7 | 0.00 | 0.00 | 0.00 | 73 | 1000.0 |
| 20260505040643 | 73 | 108 | 0.0 | 0.0 | 0.00 | 0.00 | 0.00 | 73 | 1000.1 |
| 20260505040140 | 73 | 128 | 0.9 | 1.7 | 0.00 | 0.00 | 0.00 | 73 | 1000.5 |
| 20260505035636 | 73 | 151 | 0.9 | 1.7 | 0.00 | 0.00 | 0.00 | 73 | 999.9 |
| 20260505035132 | 73 | 116 | 0.9 | 1.7 | 0.00 | 0.00 | 0.00 | 74 | 1000.1 |
| 20260505034629 | 73 | 119 | 0.9 | 1.7 | 0.00 | 0.00 | 0.00 | 74 | 1000.3 |
| 20260505034126 | 73 | 257 | 0.9 | 0.9 | 0.00 | 0.00 | 0.00 | 73 | 1000.3 |
| 20260505033623 | 73 | 145 | 0.0 | 1.7 | 0.00 | 0.00 | 0.00 | 73 | 1000.4 |
| 20260505033121 | 73 | 113 | 1.7 | 1.7 | 0.00 | 0.00 | 0.00 | 72 | 1000.3 |
| 20260505032619 | 73 | 176 | 0.9 | 1.7 | 0.00 | 0.00 | 0.00 | 73 | 1000.4 |
| 20260505032115 | 73 | 93 | 1.7 | 2.6 | 0.00 | 0.00 | 0.00 | 72 | 1000.3 |
| 20260505031612 | 73 | 112 | 0.9 | 0.9 | 0.00 | 0.00 | 0.00 | 72 | 1000.7 |
| 20260505031108 | 73 | 128 | 0.0 | 0.0 | 0.00 | 0.00 | 0.00 | 72 | 1000.4 |
| 20260505030606 | 73 | 175 | 0.9 | 1.7 | 0.00 | 0.00 | 0.00 | 72 | 1000.4 |
| 20260505025557 | 74 | 126 | 0.0 | 0.0 | 0.00 | 0.00 | 0.00 | 72 | 1000.3 |
| 20260505025057 | 74 | 114 | 0.0 | 0.9 | 0.00 | 0.00 | 0.00 | 71 | 1000.4 |
| 20260505024553 | 74 | 122 | 0.0 | 0.9 | 0.00 | 0.00 | 0.00 | 71 | 1000.3 |
| 20260505024050 | 74 | 139 | 0.9 | 0.9 | 0.00 | 0.00 | 0.00 | 71 | 1000.2 |
| 20260505023547 | 74 | 124 | 0.9 | 1.7 | 0.00 | 0.00 | 0.00 | 71 | 1000.6 |
| 20260505023045 | 74 | 104 | 0.0 | 0.0 | 0.00 | 0.00 | 0.00 | 71 | 1000.4 |
| 20260505022542 | 74 | 63 | 0.9 | 0.9 | 0.00 | 0.00 | 0.00 | 71 | 1000.0 |
| 20260505022039 | 74 | 120 | 0.0 | 0.9 | 0.00 | 0.00 | 0.00 | 71 | 1000.3 |
| 20260505021536 | 74 | 122 | 0.0 | 0.0 | 0.00 | 0.00 | 0.00 | 72 | 1000.2 |
| 20260505021032 | 74 | 136 | 0.0 | 0.0 | 0.00 | 0.00 | 0.00 | 71 | 1000.0 |
| 20260505020526 | 74 | 68 | 0.9 | 1.7 | 0.00 | 0.00 | 0.00 | 71 | 1000.1 |
| 20260505020024 | 74 | 109 | 0.0 | 0.0 | 0.00 | 0.00 | 0.00 | 71 | 1000.2 |
| 20260505015521 | 74 | 153 | 0.9 | 1.7 | 0.00 | 0.00 | 0.00 | 70 | 1000.4 |
| 20260505015018 | 74 | 137 | 0.0 | 0.0 | 0.00 | 0.00 | 0.00 | 70 | 1000.3 |
| 20260505014515 | 74 | 156 | 0.9 | 0.9 | 0.00 | 0.00 | 0.00 | 70 | 1000.4 |
| 20260505014012 | 74 | 135 | 0.9 | 0.9 | 0.00 | 0.00 | 0.00 | 69 | 1000.4 |
| 20260505013509 | 75 | 89 | 0.0 | 0.0 | 0.00 | 0.00 | 0.00 | 70 | 1000.5 |
| 20260505013006 | 75 | 109 | 0.9 | 1.7 | 0.00 | 0.00 | 0.00 | 69 | 1000.3 |
| 20260505012505 | 75 | 134 | 0.0 | 0.9 | 0.00 | 0.00 | 0.00 | 68 | 1000.3 |
| 20260505012001 | 75 | 91 | 1.7 | 1.7 | 0.00 | 0.00 | 0.00 | 68 | 1000.4 |
| 20260505011456 | 75 | 120 | 0.9 | 0.9 | 0.00 | 0.00 | 0.00 | 68 | 1000.4 |
| 20260505010954 | 76 | 94 | 0.9 | 0.9 | 0.00 | 0.00 | 0.00 | 67 | 1000.1 |
| 20260505010449 | 76 | 153 | 0.0 | 0.9 | 0.00 | 0.00 | 0.00 | 66 | 1000.5 |
| 20260505005946 | 76 | 132 | 0.0 | 0.0 | 0.00 | 0.00 | 0.00 | 66 | 1000.3 |
| 20260505005442 | 76 | 123 | 0.9 | 0.9 | 0.00 | 0.00 | 0.00 | 65 | 1000.4 |